WZZ6307 LIMJ-LHBP

Flight info

Callsign WZZ6307
Flight time 1h 15m
Altitude 36000
Route GEN DCT GOLAS DCT KALIK DCT LURUT DCT CHI DCT BARPI DCT KOPRY DCT ULZAK
Aircraft A320/M-SDE1E2E3FGIJ1J4RWXY/LB1

Departure

Time 2026-04-14 12:54
Airport Genoa Cristoforo Colombo Airport (LIMJ)

Arrival

Time 2026-04-14 14:09
Airport Budapest Liszt Ferenc International Airport (LHBP)
Time Latitude Longitude Altitude Speed Heading
2026-04-14 12:14 44.41307 8.84810 20 ft 0 kts 194°
2026-04-14 12:46 44.41299 8.84809 20 ft 0 kts 184°
2026-04-14 12:47 44.41297 8.84812 23 ft 0 kts 155°
2026-04-14 12:47 44.41294 8.84828 21 ft 5 kts 107°
2026-04-14 12:47 44.41285 8.84877 20 ft 9 kts 106°
2026-04-14 12:47 44.41243 8.84925 20 ft 8 kts 189°
2026-04-14 12:48 44.41214 8.84869 20 ft 8 kts 274°
2026-04-14 12:48 44.41231 8.84779 20 ft 11 kts 285°
2026-04-14 12:48 44.41253 8.84666 20 ft 14 kts 285°
2026-04-14 12:48 44.41279 8.84537 20 ft 10 kts 285°
2026-04-14 12:49 44.41299 8.84433 21 ft 12 kts 285°
2026-04-14 12:49 44.41324 8.84308 20 ft 15 kts 285°
2026-04-14 12:49 44.41353 8.84160 20 ft 17 kts 285°
2026-04-14 12:49 44.41387 8.83990 22 ft 19 kts 285°
2026-04-14 12:50 44.41424 8.83799 20 ft 22 kts 285°
2026-04-14 12:50 44.41510 8.83357 20 ft 26 kts 285°
2026-04-14 12:50 44.41559 8.83109 22 ft 27 kts 285°
2026-04-14 12:51 44.41608 8.82855 20 ft 23 kts 285°
2026-04-14 12:51 44.41619 8.82800 20 ft 0 kts 285°
2026-04-14 12:51 44.41625 8.82767 20 ft 8 kts 286°
2026-04-14 12:52 44.41646 8.82669 22 ft 13 kts 286°
2026-04-14 12:52 44.41660 8.82551 19 ft 10 kts 253°
2026-04-14 12:52 44.41594 8.82496 18 ft 13 kts 195°
2026-04-14 12:52 44.41524 8.82495 19 ft 7 kts 122°
2026-04-14 12:53 44.41520 8.82518 17 ft 0 kts 105°
2026-04-14 12:53 44.41501 8.82618 19 ft 40 kts 104°
2026-04-14 12:53 44.41366 8.83309 22 ft 104 kts 105°
2026-04-14 12:53 44.41129 8.84522 21 ft 152 kts 105°
2026-04-14 12:54 44.40835 8.86058 408 ft 162 kts 100°
2026-04-14 12:54 44.40481 8.87575 1048 ft 166 kts 104°
2026-04-14 12:54 44.40088 8.89136 1526 ft 178 kts 106°
2026-04-14 12:54 44.39647 8.90846 1916 ft 194 kts 105°
2026-04-14 12:55 44.39161 8.92693 2248 ft 212 kts 104°
2026-04-14 12:55 44.38617 8.94745 2557 ft 237 kts 107°
2026-04-14 12:55 44.37945 8.96969 3081 ft 258 kts 110°
2026-04-14 12:55 44.37220 8.99283 3974 ft 261 kts 109°
2026-04-14 12:56 44.36508 9.01635 4911 ft 264 kts 110°
2026-04-14 12:56 44.35784 9.04011 5821 ft 266 kts 110°
2026-04-14 12:56 44.35070 9.06380 6797 ft 264 kts 110°
2026-04-14 12:56 44.34363 9.08759 7658 ft 268 kts 109°
2026-04-14 12:57 44.33635 9.11176 8461 ft 272 kts 111°
2026-04-14 12:57 44.32933 9.13639 9245 ft 275 kts 102°
2026-04-14 12:57 44.32825 9.16302 9954 ft 277 kts 78°
2026-04-14 12:57 44.33191 9.18996 10458 ft 292 kts 78°
2026-04-14 12:58 44.33563 9.21906 10677 ft 315 kts 79°
2026-04-14 12:58 44.33924 9.24984 11159 ft 325 kts 79°
2026-04-14 12:58 44.34273 9.28116 11897 ft 327 kts 80°
2026-04-14 12:58 44.34611 9.31264 12594 ft 330 kts 81°
2026-04-14 12:59 44.34956 9.34471 13235 ft 335 kts 81°
2026-04-14 12:59 44.35306 9.37701 13904 ft 338 kts 81°
2026-04-14 12:59 44.35665 9.40955 14521 ft 341 kts 81°
2026-04-14 12:59 44.36040 9.44257 15032 ft 346 kts 81°
2026-04-14 13:00 44.36421 9.47586 15657 ft 348 kts 81°
2026-04-14 13:00 44.36808 9.50956 16186 ft 353 kts 81°
2026-04-14 13:00 44.37195 9.54366 16737 ft 357 kts 81°
2026-04-14 13:00 44.37580 9.57808 17352 ft 359 kts 81°
2026-04-14 13:01 44.37965 9.61279 17875 ft 365 kts 81°
2026-04-14 13:01 44.38355 9.64814 18414 ft 368 kts 81°
2026-04-14 13:01 44.38749 9.68363 18924 ft 371 kts 81°
2026-04-14 13:01 44.39148 9.71956 19404 ft 376 kts 81°
2026-04-14 13:02 44.39552 9.75576 19950 ft 378 kts 81°
2026-04-14 13:02 44.39957 9.79235 20450 ft 382 kts 81°
2026-04-14 13:02 44.40359 9.82924 20931 ft 386 kts 82°
2026-04-14 13:02 44.40763 9.86661 21401 ft 389 kts 82°
2026-04-14 13:03 44.41170 9.90418 21841 ft 393 kts 82°
2026-04-14 13:03 44.41580 9.94214 22316 ft 396 kts 82°
2026-04-14 13:03 44.41993 9.98036 22780 ft 399 kts 82°
2026-04-14 13:03 44.42410 10.01891 23237 ft 403 kts 82°
2026-04-14 13:04 44.42829 10.05781 23676 ft 406 kts 82°
2026-04-14 13:04 44.43247 10.09694 24057 ft 408 kts 82°
2026-04-14 13:04 44.43665 10.13627 24458 ft 411 kts 83°
2026-04-14 13:04 44.44088 10.17595 24858 ft 413 kts 82°
2026-04-14 13:05 44.44516 10.21592 25255 ft 416 kts 84°
2026-04-14 13:05 44.44937 10.25562 25652 ft 418 kts 83°
2026-04-14 13:05 44.45361 10.29602 26025 ft 420 kts 84°
2026-04-14 13:05 44.45790 10.33711 26388 ft 423 kts 84°
2026-04-14 13:06 44.46218 10.37797 26755 ft 426 kts 83°
2026-04-14 13:06 44.46642 10.41854 27131 ft 428 kts 84°
2026-04-14 13:06 44.47070 10.45990 27459 ft 430 kts 84°
2026-04-14 13:06 44.47498 10.50145 27826 ft 433 kts 83°
2026-04-14 13:07 44.47930 10.54337 28193 ft 435 kts 83°
2026-04-14 13:07 44.48362 10.58542 28566 ft 437 kts 84°
2026-04-14 13:07 44.48796 10.62785 28925 ft 440 kts 84°
2026-04-14 13:07 44.49229 10.67047 29282 ft 443 kts 84°
2026-04-14 13:08 44.49662 10.71321 29645 ft 445 kts 83°
2026-04-14 13:08 44.50096 10.75624 30004 ft 447 kts 84°
2026-04-14 13:08 44.50533 10.79963 30313 ft 449 kts 84°
2026-04-14 13:08 44.50969 10.84289 30724 ft 448 kts 84°
2026-04-14 13:09 44.51401 10.88608 31133 ft 448 kts 84°
2026-04-14 13:09 44.51832 10.92931 31536 ft 448 kts 84°
2026-04-14 13:09 44.52502 10.97190 31930 ft 450 kts 74°
2026-04-14 13:09 44.53681 11.01256 32330 ft 452 kts 64°
2026-04-14 13:10 44.55273 11.05073 32710 ft 453 kts 60°
2026-04-14 13:10 44.56908 11.08860 33110 ft 453 kts 60°
2026-04-14 13:10 44.58534 11.12641 33516 ft 453 kts 60°
2026-04-14 13:10 44.60155 11.16424 33918 ft 453 kts 61°
2026-04-14 13:11 44.61779 11.20215 34258 ft 453 kts 60°
2026-04-14 13:11 44.63399 11.24001 34591 ft 452 kts 60°
2026-04-14 13:11 44.65019 11.27786 34908 ft 452 kts 60°
2026-04-14 13:11 44.66636 11.31579 35219 ft 452 kts 60°
2026-04-14 13:12 44.68252 11.35364 35540 ft 452 kts 60°
2026-04-14 13:12 44.69864 11.39149 35861 ft 451 kts 60°
2026-04-14 13:12 44.71478 11.42942 35986 ft 453 kts 60°
2026-04-14 13:13 44.74723 11.50608 36010 ft 458 kts 60°
2026-04-14 13:13 44.77985 11.58326 36008 ft 458 kts 60°
2026-04-14 13:14 44.81243 11.66046 35999 ft 459 kts 60°
2026-04-14 13:14 44.84502 11.73775 35995 ft 459 kts 60°
2026-04-14 13:15 44.87754 11.81515 35994 ft 459 kts 60°
2026-04-14 13:15 44.90994 11.89276 35990 ft 459 kts 61°
2026-04-14 13:16 44.94230 11.97058 35992 ft 459 kts 61°
2026-04-14 13:16 44.97464 12.04831 35989 ft 459 kts 61°
2026-04-14 13:17 45.00704 12.12619 35990 ft 460 kts 61°
2026-04-14 13:17 45.03935 12.20420 35991 ft 460 kts 61°
2026-04-14 13:18 45.07158 12.28242 35993 ft 460 kts 61°
2026-04-14 13:18 45.10421 12.36043 36001 ft 460 kts 60°
2026-04-14 13:19 45.13730 12.43811 35992 ft 461 kts 60°
2026-04-14 13:19 45.17032 12.51611 35991 ft 462 kts 61°
2026-04-14 13:20 45.20320 12.59443 35997 ft 462 kts 61°
2026-04-14 13:20 45.23607 12.67311 36004 ft 463 kts 60°
2026-04-14 13:21 45.26887 12.75167 36001 ft 463 kts 60°
2026-04-14 13:21 45.30176 12.83048 35996 ft 463 kts 61°
2026-04-14 13:22 45.33444 12.90932 36004 ft 463 kts 61°
2026-04-14 13:22 45.36706 12.98824 36011 ft 462 kts 61°
2026-04-14 13:23 45.39960 13.06711 36014 ft 462 kts 61°
2026-04-14 13:23 45.43197 13.14564 36010 ft 462 kts 61°
2026-04-14 13:24 45.46445 13.22478 36011 ft 463 kts 61°
2026-04-14 13:24 45.51305 13.34377 36019 ft 463 kts 61°
2026-04-14 13:25 45.54532 13.42297 36030 ft 461 kts 61°
2026-04-14 13:26 45.59640 13.57333 36028 ft 457 kts 76°
2026-04-14 13:26 45.61420 13.65996 36020 ft 457 kts 75°
2026-04-14 13:27 45.63217 13.74724 36329 ft 458 kts 75°
2026-04-14 13:27 45.64118 13.79110 36684 ft 458 kts 75°
2026-04-14 13:27 45.65013 13.83466 36967 ft 458 kts 75°
2026-04-14 13:28 45.66807 13.92211 37023 ft 458 kts 76°
2026-04-14 13:28 45.68588 14.00983 37029 ft 458 kts 76°
2026-04-14 13:29 45.70359 14.09763 37039 ft 459 kts 76°
2026-04-14 13:29 45.72130 14.18574 37038 ft 462 kts 76°
2026-04-14 13:30 45.73897 14.27378 37046 ft 461 kts 76°
2026-04-14 13:30 45.75663 14.36219 37069 ft 461 kts 76°
2026-04-14 13:31 45.77419 14.45045 37085 ft 461 kts 76°
2026-04-14 13:31 45.79164 14.53880 37097 ft 461 kts 76°
2026-04-14 13:32 45.80903 14.62723 37100 ft 460 kts 76°
2026-04-14 13:32 45.82638 14.71558 37102 ft 460 kts 76°
2026-04-14 13:33 45.84357 14.80393 37097 ft 460 kts 76°
2026-04-14 13:33 45.86073 14.89262 37102 ft 461 kts 76°
2026-04-14 13:34 45.88648 15.02576 37101 ft 462 kts 76°
2026-04-14 13:35 45.90360 15.11470 37104 ft 462 kts 76°
2026-04-14 13:35 45.92059 15.20366 37105 ft 462 kts 76°
2026-04-14 13:36 45.93749 15.29273 37110 ft 462 kts 76°
2026-04-14 13:36 45.95431 15.38186 37110 ft 462 kts 76°
2026-04-14 13:37 45.97106 15.47111 37114 ft 463 kts 76°
2026-04-14 13:37 45.98779 15.56041 37112 ft 462 kts 76°
2026-04-14 13:38 46.00444 15.64929 37109 ft 462 kts 76°
2026-04-14 13:38 46.02112 15.73861 37103 ft 462 kts 76°
2026-04-14 13:39 46.03769 15.82803 37097 ft 462 kts 77°
2026-04-14 13:39 46.05408 15.91757 37095 ft 462 kts 77°
2026-04-14 13:40 46.07052 16.00768 37094 ft 462 kts 77°
2026-04-14 13:40 46.08671 16.09656 37091 ft 462 kts 76°
2026-04-14 13:41 46.10301 16.18611 37092 ft 462 kts 77°
2026-04-14 13:41 46.11915 16.27576 37095 ft 462 kts 77°
2026-04-14 13:42 46.13521 16.36549 37098 ft 462 kts 77°
2026-04-14 13:42 46.15125 16.45519 37095 ft 462 kts 77°
2026-04-14 13:43 46.16721 16.54498 37099 ft 462 kts 77°
2026-04-14 13:43 46.18306 16.63485 37101 ft 462 kts 77°
2026-04-14 13:44 46.19892 16.72499 37101 ft 462 kts 77°
2026-04-14 13:44 46.21461 16.81477 37104 ft 462 kts 77°
2026-04-14 13:45 46.23089 16.90461 37099 ft 462 kts 71°
2026-04-14 13:45 46.26043 16.98663 37098 ft 463 kts 52°
2026-04-14 13:46 46.30460 17.05410 37028 ft 464 kts 44°
2026-04-14 13:46 46.32756 17.08680 36765 ft 463 kts 44°
2026-04-14 13:46 46.35033 17.11938 36511 ft 457 kts 44°
2026-04-14 13:46 46.37264 17.15136 36374 ft 447 kts 44°
2026-04-14 13:47 46.39483 17.18317 35597 ft 452 kts 44°
2026-04-14 13:47 46.41722 17.21531 34978 ft 454 kts 44°
2026-04-14 13:47 46.43970 17.24764 34392 ft 455 kts 44°
2026-04-14 13:47 46.46202 17.27980 34147 ft 449 kts 45°
2026-04-14 13:48 46.48412 17.31170 34095 ft 451 kts 45°
2026-04-14 13:48 46.50635 17.34385 33742 ft 452 kts 45°
2026-04-14 13:48 46.52864 17.37612 32986 ft 454 kts 45°
2026-04-14 13:48 46.55096 17.40845 32328 ft 453 kts 45°
2026-04-14 13:49 46.57324 17.44078 31351 ft 450 kts 45°
2026-04-14 13:49 46.59545 17.47300 30185 ft 452 kts 45°
2026-04-14 13:49 46.61765 17.50491 29190 ft 446 kts 44°
2026-04-14 13:49 46.63966 17.53647 28277 ft 440 kts 44°
2026-04-14 13:50 46.66124 17.56740 27423 ft 433 kts 44°
2026-04-14 13:50 46.68252 17.59805 26545 ft 427 kts 44°
2026-04-14 13:50 46.70344 17.62823 25861 ft 417 kts 44°
2026-04-14 13:50 46.72359 17.65731 25529 ft 400 kts 44°
2026-04-14 13:51 46.74313 17.68554 24953 ft 392 kts 44°
2026-04-14 13:51 46.76229 17.71353 24311 ft 387 kts 45°
2026-04-14 13:51 46.78082 17.74157 24042 ft 385 kts 46°
2026-04-14 13:51 46.79941 17.76996 23803 ft 386 kts 46°
2026-04-14 13:52 46.81802 17.79816 23550 ft 387 kts 45°
2026-04-14 13:52 46.83682 17.82618 23274 ft 385 kts 45°
2026-04-14 13:52 46.85565 17.85392 23001 ft 384 kts 45°
2026-04-14 13:52 46.87442 17.88145 22732 ft 382 kts 45°
2026-04-14 13:53 46.89317 17.90896 22465 ft 381 kts 45°
2026-04-14 13:53 46.91184 17.93644 22206 ft 379 kts 45°
2026-04-14 13:53 46.93040 17.96385 21933 ft 378 kts 45°
2026-04-14 13:53 46.94860 17.99080 21680 ft 377 kts 45°
2026-04-14 13:54 46.96719 18.01837 21418 ft 373 kts 45°
2026-04-14 13:54 46.98500 18.04484 21009 ft 369 kts 45°
2026-04-14 13:54 47.00305 18.07168 20544 ft 368 kts 45°
2026-04-14 13:54 47.02097 18.09830 20089 ft 366 kts 45°
2026-04-14 13:55 47.03886 18.12490 19619 ft 365 kts 46°
2026-04-14 13:55 47.05684 18.15166 19159 ft 364 kts 46°
2026-04-14 13:55 47.07436 18.17779 18715 ft 363 kts 46°
2026-04-14 13:55 47.09227 18.20451 18219 ft 362 kts 46°
2026-04-14 13:56 47.10984 18.23078 17736 ft 360 kts 46°
2026-04-14 13:56 47.12736 18.25703 17278 ft 358 kts 46°
2026-04-14 13:56 47.14466 18.28303 16830 ft 355 kts 46°
2026-04-14 13:56 47.16164 18.30851 16372 ft 353 kts 46°
2026-04-14 13:57 47.17896 18.33448 15914 ft 351 kts 46°
2026-04-14 13:57 47.19596 18.36000 15475 ft 349 kts 46°
2026-04-14 13:57 47.21287 18.38539 15005 ft 347 kts 46°
2026-04-14 13:57 47.22969 18.41065 14571 ft 345 kts 46°
2026-04-14 13:58 47.24652 18.43597 14128 ft 344 kts 47°
2026-04-14 13:58 47.26319 18.46109 13658 ft 343 kts 47°
2026-04-14 13:58 47.27976 18.48609 13205 ft 340 kts 47°
2026-04-14 13:58 47.29617 18.51097 12775 ft 337 kts 47°
2026-04-14 13:59 47.31244 18.53568 12346 ft 335 kts 47°
2026-04-14 13:59 47.32860 18.56027 11919 ft 332 kts 47°
2026-04-14 13:59 47.34467 18.58466 11494 ft 331 kts 47°
2026-04-14 13:59 47.36066 18.60887 11057 ft 329 kts 47°
2026-04-14 14:00 47.37669 18.63319 10530 ft 331 kts 48°
2026-04-14 14:00 47.39271 18.65752 10152 ft 328 kts 48°
2026-04-14 14:00 47.40831 18.68127 10017 ft 317 kts 48°
2026-04-14 14:00 47.42341 18.70424 9877 ft 305 kts 48°
2026-04-14 14:01 47.43787 18.72620 9365 ft 296 kts 48°
2026-04-14 14:01 47.45218 18.74799 8768 ft 292 kts 49°
2026-04-14 14:01 47.46628 18.76951 8180 ft 289 kts 49°
2026-04-14 14:01 47.48010 18.79064 7678 ft 284 kts 47°
2026-04-14 14:02 47.49370 18.81149 7144 ft 280 kts 49°
2026-04-14 14:02 47.50712 18.83207 6622 ft 276 kts 49°
2026-04-14 14:02 47.52002 18.85185 6411 ft 260 kts 49°
2026-04-14 14:02 47.52833 18.86455 6115 ft 257 kts 48°
2026-04-14 14:03 47.54068 18.88344 5630 ft 255 kts 50°
2026-04-14 14:03 47.55340 18.90185 5355 ft 255 kts 46°
2026-04-14 14:03 47.57061 18.92515 5092 ft 251 kts 44°
2026-04-14 14:03 47.58359 18.94240 4827 ft 251 kts 45°
2026-04-14 14:04 47.59140 18.95523 4634 ft 245 kts 63°
2026-04-14 14:04 47.59487 18.97878 4372 ft 233 kts 102°
2026-04-14 14:04 47.58751 18.99915 4186 ft 225 kts 138°
2026-04-14 14:04 47.57607 19.01411 4084 ft 215 kts 136°
2026-04-14 14:05 47.56592 19.03007 3893 ft 211 kts 133°
2026-04-14 14:05 47.55614 19.04607 3634 ft 208 kts 132°
2026-04-14 14:05 47.54657 19.06171 3349 ft 200 kts 132°
2026-04-14 14:05 47.53744 19.07659 3099 ft 191 kts 132°
2026-04-14 14:06 47.52866 19.09089 2858 ft 182 kts 132°
2026-04-14 14:06 47.52041 19.10430 2602 ft 170 kts 132°
2026-04-14 14:06 47.51255 19.11709 2379 ft 173 kts 132°
2026-04-14 14:06 47.50464 19.12996 2151 ft 164 kts 131°
2026-04-14 14:07 47.49727 19.14194 1958 ft 149 kts 131°
2026-04-14 14:07 47.49097 19.15222 1794 ft 126 kts 130°
2026-04-14 14:07 47.48473 19.16242 1618 ft 136 kts 132°
2026-04-14 14:07 47.47845 19.17266 1411 ft 134 kts 132°
2026-04-14 14:08 47.47204 19.18306 1193 ft 136 kts 131°
2026-04-14 14:08 47.46568 19.19347 972 ft 139 kts 131°
2026-04-14 14:08 47.45905 19.20411 792 ft 142 kts 130°
2026-04-14 14:08 47.45243 19.21480 623 ft 139 kts 130°
2026-04-14 14:09 47.44594 19.22530 460 ft 133 kts 131°
2026-04-14 14:09 47.44048 19.23413 456 ft 97 kts 133°
2026-04-14 14:09 47.43667 19.24024 453 ft 66 kts 132°
2026-04-14 14:09 47.43405 19.24451 452 ft 47 kts 133°
2026-04-14 14:10 47.43203 19.24774 456 ft 40 kts 132°
2026-04-14 14:10 47.43083 19.24980 457 ft 17 kts 103°
2026-04-14 14:10 47.43115 19.25078 457 ft 10 kts 47°
2026-04-14 14:10 47.43174 19.25159 457 ft 13 kts 43°
2026-04-14 14:11 47.43246 19.25257 456 ft 15 kts 43°
2026-04-14 14:11 47.43332 19.25372 456 ft 18 kts 42°
2026-04-14 14:11 47.43428 19.25501 457 ft 19 kts 41°
2026-04-14 14:11 47.43523 19.25628 457 ft 18 kts 42°
2026-04-14 14:12 47.43615 19.25752 457 ft 17 kts 42°
2026-04-14 14:12 47.43704 19.25871 455 ft 15 kts 42°
2026-04-14 14:12 47.43733 19.25956 457 ft 9 kts 113°
2026-04-14 14:12 47.43693 19.26040 457 ft 11 kts 128°
2026-04-14 14:13 47.43675 19.26160 457 ft 13 kts 88°
2026-04-14 14:13 47.43678 19.26305 457 ft 14 kts 97°
2026-04-14 14:13 47.43625 19.26415 458 ft 12 kts 132°
2026-04-14 14:13 47.43586 19.26476 458 ft 4 kts 137°
2026-04-14 14:14 47.43562 19.26468 458 ft 4 kts 218°
2026-04-14 14:14 47.43542 19.26442 458 ft 1 kts 222°
2026-04-14 14:14 47.43535 19.26431 457 ft 0 kts 222°
2026-04-14 14:14 47.43534 19.26431 457 ft 0 kts 222°